Location: Ago
(8.4667°N, 4.4167°E)
Time: 09:03:39
(UTC+00:00)

Hubble Space Telescope - Pass Details

Date: 06 June 2020
Orbit: 536 x 540 km, 28.5° (Epoch: 05 July)

Event Time Altitude Azimuth Distance (km) Brightness Sun altitude
Rises 18:55:28 0° 306° (NW) 2,671 6.1 -13.5°
Reaches altitude 10° 18:57:47 10° 312° (NW) 1,781 4.7 -14.0°
Maximum altitude 19:01:46 48° 27° (NNE) 700 1.3 -14.9°
Enters shadow 19:03:50 25° 90° (E) 1,098 1.8 -15.4°
